| time (UTC) | temp C | wind direction | speed KPH | gust KPH | rain 1hr cm | rain 24hr cm | rain mn cm | humidity % | barometer mb |
| 20260901023036 | 29 | 71 | 20.9 | 32.2 | 0.00 | 0.00 | 0.00 | 78 | 1014.4 |
| 20260901021536 | 29 | 63 | 24.1 | 33.8 | 0.00 | 0.00 | 0.00 | 77 | 1014.2 |
| 20260901020036 | 29 | 43 | 25.7 | 33.8 | 0.00 | 0.00 | 0.00 | 76 | 1014.2 |
| 20260901014535 | 30 | 56 | 25.7 | 33.8 | 0.00 | 0.00 | 0.00 | 75 | 1014.1 |
| 20260901011538 | 30 | 51 | 20.9 | 27.4 | 0.00 | 0.00 | 0.00 | 72 | 1013.8 |
| 20260901010033 | 30 | 42 | 22.5 | 27.4 | 0.00 | 0.00 | 0.00 | 71 | 1013.7 |
| 20260901004532 | 30 | 46 | 12.9 | 22.5 | 0.00 | 0.00 | 0.00 | 72 | 1013.6 |
| 20260901003033 | 30 | 38 | 19.3 | 27.4 | 0.00 | 0.00 | 0.00 | 71 | 1013.5 |
| 20260901001536 | 31 | 41 | 20.9 | 25.7 | 0.00 | 0.00 | 0.00 | 70 | 1013.5 |
| 20260901000031 | 31 | 41 | 17.7 | 25.7 | 0.00 | 0.00 | 0.00 | 71 | 1013.4 |
| 20260831234530 | 31 | 23 | 17.7 | 30.6 | 0.00 | 0.00 | 0.00 | 70 | 1013.4 |
| 20260831233028 | 31 | 46 | 16.1 | 24.1 | 0.00 | 0.00 | 0.00 | 69 | 1013.2 |
| 20260831231528 | 31 | 40 | 22.5 | 29.0 | 0.00 | 0.00 | 0.00 | 67 | 1013.0 |
| 20260831230030 | 31 | 5 | 14.5 | 25.7 | 0.00 | 0.00 | 0.00 | 64 | 1013.2 |
| 20260831224526 | 32 | 26 | 14.5 | 24.1 | 0.00 | 0.00 | 0.00 | 65 | 1013.1 |
| 20260831223029 | 32 | 332 | 11.3 | 22.5 | 0.00 | 0.00 | 0.00 | 66 | 1013.2 |
| 20260831221639 | 32 | 56 | 20.9 | 27.4 | 0.00 | 0.00 | 0.00 | 65 | 1013.1 |
| 20260831220023 | 32 | 34 | 16.1 | 22.5 | 0.00 | 0.00 | 0.00 | 65 | 1013.4 |
| 20260831214525 | 33 | 46 | 16.1 | 22.5 | 0.00 | 0.00 | 0.00 | 66 | 1013.5 |
| 20260831213025 | 31 | 59 | 4.8 | 14.5 | 0.00 | 0.00 | 0.00 | 74 | 1013.5 |
| 20260831211522 | 32 | 140 | 6.4 | 17.7 | 0.00 | 0.00 | 0.00 | 70 | 1013.4 |
| 20260831210021 | 34 | 53 | 8.0 | 24.1 | 0.00 | 0.00 | 0.00 | 62 | 1013.4 |
| 20260831204521 | 34 | 360 | 17.7 | 25.7 | 0.00 | 0.00 | 0.00 | 64 | 1013.7 |
| 20260831203018 | 33 | 63 | 17.7 | 32.2 | 0.00 | 0.00 | 0.00 | 65 | 1013.5 |
| 20260831201518 | 33 | 355 | 11.3 | 20.9 | 0.00 | 0.00 | 0.00 | 64 | 1013.6 |
| 20260831200025 | 33 | 5 | 16.1 | 24.1 | 0.00 | 0.00 | 0.00 | 64 | 1013.8 |
| 20260831194525 | 35 | 22 | 11.3 | 24.1 | 0.00 | 0.00 | 0.00 | 61 | 1013.9 |
| 20260831193014 | 35 | 5 | 8.0 | 16.1 | 0.00 | 0.00 | 0.00 | 60 | 1014.0 |
| 20260831191512 | 35 | 142 | 9.7 | 17.7 | 0.00 | 0.00 | 0.00 | 60 | 1013.9 |
| 20260831190019 | 35 | 241 | 3.2 | 8.0 | 0.00 | 0.00 | 0.00 | 60 | 1014.5 |
| 20260831184509 | 35 | 140 | 6.4 | 14.5 | 0.00 | 0.00 | 0.00 | 60 | 1014.6 |
| 20260831183005 | 35 | 187 | 3.2 | 12.9 | 0.00 | 0.00 | 0.00 | 60 | 1014.9 |
| 20260831181603 | 34 | 86 | 4.8 | 11.3 | 0.00 | 0.00 | 0.00 | 65 | 1015.0 |
| 20260831180111 | 34 | 140 | 3.2 | 12.9 | 0.00 | 0.00 | 0.00 | 63 | 1015.0 |
| 20260831174557 | 34 | 130 | 3.2 | 8.0 | 0.00 | 0.00 | 0.00 | 63 | 1015.1 |
| 20260831173102 | 34 | 150 | 4.8 | 12.9 | 0.00 | 0.00 | 0.00 | 64 | 1015.3 |
| 20260831171554 | 33 | 152 | 9.7 | 14.5 | 0.00 | 0.00 | 0.00 | 66 | 1015.3 |
| 20260831170049 | 32 | 254 | 3.2 | 11.3 | 0.00 | 0.00 | 0.00 | 67 | 1015.5 |
| 20260831164547 | 32 | 69 | 3.2 | 14.5 | 0.00 | 0.00 | 0.00 | 68 | 1015.7 |
| 20260831163047 | 32 | 126 | 6.4 | 14.5 | 0.00 | 0.00 | 0.00 | 69 | 1015.8 |
| 20260831161543 | 32 | 105 | 4.8 | 12.9 | 0.00 | 0.00 | 0.00 | 72 | 1016.0 |
| 20260831160040 | 32 | 183 | 6.4 | 12.9 | 0.00 | 0.00 | 0.00 | 71 | 1016.1 |
| 20260831154536 | 31 | 127 | 1.6 | 11.3 | 0.00 | 0.00 | 0.00 | 72 | 1015.9 |
| 20260831153032 | 31 | 252 | 0.0 | 8.0 | 0.00 | 0.00 | 0.00 | 76 | 1015.7 |
| 20260831151530 | 31 | 59 | 6.4 | 11.3 | 0.00 | 0.00 | 0.00 | 75 | 1015.8 |
| 20260831150027 | 30 | 192 | 3.2 | 8.0 | 0.00 | 0.00 | 0.00 | 78 | 1015.7 |
| 20260831144523 | 30 | 135 | 3.2 | 11.3 | 0.00 | 0.00 | 0.00 | 78 | 1015.7 |
| 20260831143020 | 30 | 136 | 4.8 | 8.0 | 0.00 | 0.00 | 0.00 | 79 | 1015.6 |
| 20260831141516 | 29 | 178 | 0.0 | 8.0 | 0.00 | 0.00 | 0.00 | 80 | 1015.6 |
| 20260831140029 | 29 | 70 | 0.0 | 6.4 | 0.00 | 0.00 | 0.00 | 80 | 1015.3 |
| 20260831134508 | 28 | 116 | 3.2 | 9.7 | 0.00 | 0.00 | 0.00 | 80 | 1015.1 |
| 20260831133003 | 28 | 110 | 6.4 | 14.5 | 0.00 | 0.00 | 0.00 | 81 | 1015.1 |
| 20260831131602 | 27 | 86 | 1.6 | 8.0 | 0.00 | 0.00 | 0.00 | 81 | 1014.9 |
| 20260831130054 | 27 | 136 | 0.0 | 9.7 | 0.00 | 0.00 | 0.00 | 83 | 1015.0 |
| 20260831124551 | 26 | 42 | 4.8 | 6.4 | 0.00 | 0.00 | 0.00 | 85 | 1014.7 |
| 20260831123048 | 26 | 106 | 0.0 | 9.7 | 0.00 | 0.00 | 0.00 | 85 | 1014.5 |
| 20260831121547 | 26 | 128 | 0.0 | 4.8 | 0.00 | 0.00 | 0.00 | 86 | 1014.3 |
| 20260831120152 | 25 | 50 | 3.2 | 11.3 | 0.00 | 0.00 | 0.00 | 86 | 1014.4 |
| 20260831114541 | 26 | 101 | 3.2 | 8.0 | 0.00 | 0.00 | 0.00 | 85 | 1014.1 |
| 20260831113046 | 26 | 104 | 0.0 | 9.7 | 0.00 | 0.00 | 0.00 | 85 | 1014.0 |
| 20260831111535 | 26 | 130 | 1.6 | 6.4 | 0.00 | 0.00 | 0.00 | 85 | 1013.9 |
| 20260831110034 | 26 | 113 | 1.6 | 4.8 | 0.00 | 0.00 | 0.00 | 85 | 1013.9 |
| 20260831104537 | 26 | 115 | 1.6 | 4.8 | 0.00 | 0.00 | 0.00 | 84 | 1013.6 |
| 20260831103033 | 26 | 85 | 0.0 | 4.8 | 0.00 | 0.00 | 0.00 | 84 | 1013.6 |
| 20260831101532 | 26 | 131 | 3.2 | 6.4 | 0.00 | 0.00 | 0.00 | 84 | 1013.8 |
| 20260831100036 | 26 | 77 | 0.0 | 4.8 | 0.00 | 0.00 | 0.00 | 84 | 1013.6 |
| 20260831094530 | 26 | 62 | 1.6 | 6.4 | 0.00 | 0.00 | 0.00 | 84 | 1013.6 |
| 20260831093031 | 26 | 167 | 1.6 | 4.8 | 0.00 | 0.00 | 0.00 | 84 | 1013.6 |
| 20260831091533 | 26 | 115 | 1.6 | 4.8 | 0.00 | 0.00 | 0.00 | 84 | 1013.7 |
| 20260831090028 | 26 | 58 | 1.6 | 4.8 | 0.00 | 0.00 | 0.00 | 84 | 1013.9 |
| 20260831084528 | 26 | 84 | 0.0 | 3.2 | 0.00 | 0.00 | 0.00 | 84 | 1013.8 |
| 20260831083028 | 26 | 84 | 0.0 | 3.2 | 0.00 | 0.00 | 0.00 | 84 | 1013.9 |
| 20260831081526 | 26 | 84 | 0.0 | 3.2 | 0.00 | 0.00 | 0.00 | 84 | 1014.1 |
| 20260831080028 | 26 | 40 | 0.0 | 3.2 | 0.00 | 0.00 | 0.00 | 84 | 1014.2 |
| 20260831074525 | 26 | 35 | 0.0 | 4.8 | 0.00 | 0.00 | 0.00 | 84 | 1014.2 |
| 20260831073021 | 26 | 46 | 3.2 | 6.4 | 0.00 | 0.00 | 0.00 | 84 | 1014.4 |
| 20260831071519 | 26 | 129 | 0.0 | 6.4 | 0.00 | 0.00 | 0.00 | 84 | 1014.7 |
| 20260831070018 | 26 | 148 | 0.0 | 0.0 | 0.00 | 0.00 | 0.00 | 84 | 1014.8 |
| 20260831064518 | 26 | 148 | 0.0 | 3.2 | 0.00 | 0.00 | 0.00 | 83 | 1015.0 |
| 20260831063017 | 26 | 148 | 0.0 | 3.2 | 0.00 | 0.00 | 0.00 | 83 | 1015.0 |
| 20260831061515 | 26 | 121 | 3.2 | 6.4 | 0.00 | 0.00 | 0.00 | 83 | 1015.0 |
| 20260831060012 | 26 | 121 | 4.8 | 6.4 | 0.00 | 0.00 | 0.00 | 82 | 1015.2 |
| 20260831054512 | 26 | 181 | 3.2 | 9.7 | 0.00 | 0.00 | 0.00 | 81 | 1015.4 |
| 20260831053011 | 27 | 153 | 4.8 | 12.9 | 0.00 | 0.00 | 0.00 | 80 | 1015.4 |
| 20260831051518 | 27 | 141 | 3.2 | 11.3 | 0.00 | 0.00 | 0.00 | 79 | 1015.4 |
| 20260831050010 | 27 | 132 | 4.8 | 9.7 | 0.00 | 0.00 | 0.00 | 79 | 1015.5 |
| 20260831044610 | 27 | 117 | 4.8 | 9.7 | 0.00 | 0.00 | 0.00 | 78 | 1015.5 |
| 20260831043009 | 27 | 141 | 3.2 | 6.4 | 0.00 | 0.00 | 0.00 | 77 | 1015.7 |
| 20260831041509 | 27 | 123 | 3.2 | 9.7 | 0.00 | 0.00 | 0.00 | 76 | 1015.5 |
| 20260831040008 | 27 | 131 | 4.8 | 8.0 | 0.00 | 0.00 | 0.00 | 75 | 1015.2 |
| 20260831034507 | 28 | 125 | 1.6 | 6.4 | 0.00 | 0.00 | 0.00 | 74 | 1015.0 |
| 20260831033015 | 28 | 121 | 4.8 | 11.3 | 0.00 | 0.00 | 0.00 | 74 | 1014.6 |
| 20260831031513 | 28 | 94 | 4.8 | 12.9 | 0.00 | 0.00 | 0.00 | 73 | 1014.7 |
| 20260831030006 | 28 | 163 | 1.6 | 17.7 | 0.00 | 0.00 | 0.00 | 74 | 1014.6 |
| 20260831024505 | 28 | 121 | 12.9 | 19.3 | 0.00 | 0.00 | 0.00 | 77 | 1014.7 |